| time (UTC) | temp C | wind direction | speed KPH | gust KPH | rain 1hr cm | rain 24hr cm | rain mn cm | humidity % | barometer mb |
| 20260505102057 | 5 | 340 | 11.3 | 17.7 | 0.00 | 0.03 | 0.03 | 94 | 1006.2 |
| 20260505101555 | 5 | 336 | 19.3 | 29.0 | 0.00 | 0.03 | 0.03 | 94 | 1006.3 |
| 20260505101051 | 6 | 327 | 8.0 | 17.7 | 0.00 | 0.03 | 0.03 | 94 | 1006.0 |
| 20260505100548 | 6 | 347 | 14.5 | 17.7 | 0.00 | 0.03 | 0.03 | 94 | 1006.1 |
| 20260505100045 | 6 | 337 | 9.7 | 22.5 | 0.18 | 0.03 | 0.03 | 93 | 1005.8 |
| 20260505095541 | 6 | 343 | 22.5 | 27.4 | 0.18 | 0.03 | 0.03 | 93 | 1005.4 |
| 20260505095037 | 6 | 334 | 14.5 | 24.1 | 0.00 | 0.00 | 0.00 | 93 | 1005.8 |
| 20260505094534 | 6 | 322 | 16.1 | 32.2 | 0.00 | 0.00 | 0.00 | 93 | 1005.8 |
| 20260505094030 | 8 | 315 | 24.1 | 27.4 | 0.00 | 0.00 | 0.00 | 93 | 1005.7 |
| 20260505093527 | 7 | 339 | 4.8 | 8.0 | 0.00 | 0.00 | 0.00 | 94 | 1005.4 |
| 20260505093024 | 7 | 327 | 3.2 | 4.8 | 0.00 | 0.00 | 0.00 | 94 | 1005.8 |
| 20260505092521 | 7 | 336 | 4.8 | 8.0 | 0.00 | 0.00 | 0.00 | 94 | 1005.5 |
| 20260505092020 | 7 | 314 | 8.0 | 9.7 | 0.00 | 0.00 | 0.00 | 95 | 1005.6 |
| 20260505091516 | 7 | 313 | 9.7 | 11.3 | 0.00 | 0.00 | 0.00 | 95 | 1005.7 |
| 20260505091014 | 7 | 314 | 6.4 | 11.3 | 0.00 | 0.00 | 0.00 | 95 | 1005.7 |
| 20260505090512 | 7 | 346 | 8.0 | 9.7 | 0.00 | 0.00 | 0.00 | 95 | 1005.5 |
| 20260505090010 | 7 | 339 | 6.4 | 8.0 | 0.00 | 0.00 | 0.00 | 95 | 1005.4 |
| 20260505085508 | 7 | 332 | 4.8 | 8.0 | 0.00 | 0.00 | 0.00 | 95 | 1005.4 |
| 20260505085006 | 7 | 325 | 4.8 | 4.8 | 0.00 | 0.00 | 0.00 | 94 | 1005.5 |
| 20260505084503 | 7 | 287 | 4.8 | 8.0 | 0.00 | 0.00 | 0.00 | 94 | 1005.4 |
| 20260505084001 | 7 | 314 | 4.8 | 4.8 | 0.00 | 0.00 | 0.00 | 94 | 1005.4 |
| 20260505083458 | 7 | 331 | 0.0 | 3.2 | 0.00 | 0.00 | 0.00 | 94 | 1005.3 |
| 20260505082954 | 7 | 115 | 4.8 | 4.8 | 0.00 | 0.00 | 0.00 | 94 | 1005.5 |
| 20260505082450 | 7 | 208 | 3.2 | 3.2 | 0.00 | 0.00 | 0.00 | 94 | 1005.3 |
| 20260505081947 | 7 | 296 | 1.6 | 3.2 | 0.00 | 0.00 | 0.00 | 94 | 1005.6 |
| 20260505081444 | 8 | 304 | 1.6 | 1.6 | 0.00 | 0.00 | 0.00 | 93 | 1005.6 |
| 20260505080940 | 8 | 93 | 0.0 | 0.0 | 0.00 | 0.00 | 0.00 | 93 | 1005.7 |
| 20260505080437 | 8 | 158 | 3.2 | 4.8 | 0.00 | 0.00 | 0.00 | 93 | 1005.5 |
| 20260505075932 | 8 | 91 | 4.8 | 8.0 | 0.00 | 0.00 | 0.00 | 93 | 1005.5 |
| 20260505075429 | 8 | 105 | 6.4 | 8.0 | 0.00 | 0.00 | 0.00 | 93 | 1005.5 |
| 20260505074927 | 8 | 87 | 6.4 | 8.0 | 0.00 | 0.00 | 0.00 | 93 | 1005.5 |
| 20260505074424 | 8 | 115 | 3.2 | 8.0 | 0.00 | 0.00 | 0.00 | 93 | 1005.7 |
| 20260505073921 | 8 | 143 | 4.8 | 8.0 | 0.00 | 0.00 | 0.00 | 93 | 1005.7 |
| 20260505073419 | 8 | 100 | 3.2 | 4.8 | 0.00 | 0.00 | 0.00 | 93 | 1006.0 |
| 20260505072916 | 8 | 177 | 3.2 | 3.2 | 0.00 | 0.00 | 0.00 | 93 | 1006.2 |
| 20260505072412 | 8 | 209 | 4.8 | 4.8 | 0.00 | 0.00 | 0.00 | 93 | 1006.1 |
| 20260505071908 | 8 | 109 | 6.4 | 8.0 | 0.00 | 0.00 | 0.00 | 94 | 1006.1 |
| 20260505071404 | 8 | 100 | 4.8 | 4.8 | 0.00 | 0.00 | 0.00 | 94 | 1006.4 |
| 20260505070902 | 8 | 244 | 1.6 | 1.6 | 0.00 | 0.00 | 0.00 | 94 | 1006.3 |
| 20260505070358 | 8 | 321 | 0.0 | 0.0 | 0.00 | 0.00 | 0.00 | 94 | 1006.6 |
| 20260505065854 | 8 | 285 | 1.6 | 3.2 | 0.00 | 0.00 | 0.00 | 94 | 1006.6 |
| 20260505065351 | 8 | 351 | 0.0 | 4.8 | 0.00 | 0.00 | 0.00 | 94 | 1006.4 |
| 20260505064848 | 8 | 338 | 0.0 | 3.2 | 0.00 | 0.00 | 0.00 | 94 | 1006.4 |
| 20260505064345 | 8 | 135 | 4.8 | 9.7 | 0.00 | 0.00 | 0.00 | 94 | 1006.6 |
| 20260505063844 | 7 | 160 | 4.8 | 8.0 | 0.00 | 0.00 | 0.00 | 94 | 1006.6 |
| 20260505063339 | 7 | 331 | 0.0 | 0.0 | 0.00 | 0.00 | 0.00 | 95 | 1006.6 |
| 20260505062836 | 8 | 94 | 3.2 | 4.8 | 0.00 | 0.00 | 0.00 | 95 | 1006.6 |
| 20260505062333 | 8 | 100 | 8.0 | 9.7 | 0.00 | 0.00 | 0.00 | 95 | 1006.6 |
| 20260505061830 | 8 | 99 | 4.8 | 4.8 | 0.00 | 0.00 | 0.00 | 95 | 1006.6 |
| 20260505061328 | 7 | 69 | 4.8 | 4.8 | 0.00 | 0.00 | 0.00 | 95 | 1006.6 |
| 20260505060825 | 7 | 354 | 0.0 | 0.0 | 0.00 | 0.00 | 0.00 | 95 | 1006.4 |
| 20260505060322 | 7 | 317 | 0.0 | 0.0 | 0.00 | 0.00 | 0.00 | 95 | 1006.7 |
| 20260505055818 | 7 | 323 | 0.0 | 1.6 | 0.00 | 0.30 | 0.30 | 95 | 1006.7 |
| 20260505055314 | 7 | 326 | 1.6 | 3.2 | 0.00 | 0.30 | 0.30 | 94 | 1006.8 |
| 20260505054812 | 7 | 291 | 3.2 | 3.2 | 0.00 | 0.30 | 0.30 | 94 | 1006.7 |
| 20260505054308 | 7 | 1 | 0.0 | 0.0 | 0.00 | 0.30 | 0.30 | 94 | 1006.8 |
| 20260505053807 | 7 | 12 | 3.2 | 3.2 | 0.00 | 0.30 | 0.30 | 94 | 1006.9 |
| 20260505053303 | 8 | 326 | 0.0 | 1.6 | 0.00 | 0.30 | 0.30 | 94 | 1006.7 |
| 20260505052800 | 8 | 2 | 3.2 | 4.8 | 0.00 | 0.30 | 0.30 | 94 | 1006.8 |
| 20260505052257 | 8 | 345 | 0.0 | 0.0 | 0.00 | 0.30 | 0.30 | 94 | 1006.8 |
| 20260505051754 | 8 | 4 | 1.6 | 4.8 | 0.00 | 0.30 | 0.30 | 94 | 1006.8 |
| 20260505051252 | 8 | 41 | 8.0 | 9.7 | 0.00 | 0.30 | 0.30 | 94 | 1006.9 |
| 20260505050750 | 8 | 20 | 1.6 | 8.0 | 0.00 | 0.30 | 0.30 | 94 | 1006.7 |
| 20260505050248 | 8 | 83 | 4.8 | 8.0 | 0.00 | 0.30 | 0.30 | 94 | 1006.9 |
| 20260505041718 | 8 | 318 | 3.2 | 4.8 | 0.13 | 0.20 | 0.20 | 92 | 1007.3 |
| 20260505041215 | 8 | 313 | 6.4 | 9.7 | 0.18 | 0.18 | 0.18 | 91 | 1007.4 |
| 20260505040712 | 8 | 305 | 8.0 | 11.3 | 0.18 | 0.18 | 0.18 | 91 | 1007.4 |
| 20260505040209 | 8 | 320 | 3.2 | 8.0 | 0.13 | 0.15 | 0.15 | 90 | 1007.4 |
| 20260505035706 | 8 | 338 | 6.4 | 9.7 | 0.43 | 0.15 | 0.15 | 90 | 1007.1 |
| 20260505035202 | 8 | 327 | 6.4 | 9.7 | 0.30 | 0.13 | 0.13 | 89 | 1007.1 |
| 20260505034659 | 9 | 331 | 6.4 | 8.0 | 0.00 | 0.08 | 0.08 | 85 | 1007.3 |
| 20260505034156 | 9 | 331 | 6.4 | 8.0 | 0.00 | 0.08 | 0.08 | 85 | 1007.0 |
| 20260505033652 | 9 | 312 | 4.8 | 4.8 | 0.18 | 0.08 | 0.08 | 83 | 1006.8 |
| 20260505033151 | 9 | 298 | 3.2 | 4.8 | 0.18 | 0.08 | 0.08 | 81 | 1006.8 |
| 20260505032648 | 9 | 289 | 6.4 | 8.0 | 0.30 | 0.05 | 0.05 | 82 | 1006.8 |
| 20260505032139 | 9 | 235 | 8.0 | 8.0 | 0.30 | 0.05 | 0.05 | 80 | 1006.4 |
| 20260505031636 | 10 | 191 | 11.3 | 14.5 | 0.00 | 0.00 | 0.00 | 75 | 1006.4 |
| 20260505031132 | 11 | 217 | 12.9 | 27.4 | 0.00 | 0.00 | 0.00 | 71 | 1006.6 |
| 20260505030629 | 11 | 221 | 17.7 | 22.5 | 0.00 | 0.00 | 0.00 | 65 | 1006.2 |
| 20260505030125 | 11 | 227 | 20.9 | 22.5 | 0.00 | 0.00 | 0.00 | 63 | 1006.3 |
| 20260505025621 | 11 | 236 | 11.3 | 16.1 | 0.00 | 0.00 | 0.00 | 64 | 1006.3 |
| 20260505025120 | 11 | 224 | 14.5 | 24.1 | 0.00 | 0.00 | 0.00 | 63 | 1006.0 |
| 20260505024617 | 11 | 218 | 9.7 | 11.3 | 0.00 | 0.00 | 0.00 | 63 | 1006.0 |
| 20260505024114 | 11 | 213 | 6.4 | 11.3 | 0.00 | 0.00 | 0.00 | 62 | 1005.7 |
| 20260505023611 | 11 | 286 | 3.2 | 4.8 | 0.00 | 0.00 | 0.00 | 63 | 1005.7 |
| 20260505023109 | 11 | 220 | 4.8 | 4.8 | 0.00 | 0.00 | 0.00 | 64 | 1005.7 |
| 20260505022606 | 11 | 307 | 3.2 | 3.2 | 0.00 | 0.00 | 0.00 | 64 | 1005.5 |
| 20260505022103 | 11 | 294 | 3.2 | 8.0 | 0.00 | 0.00 | 0.00 | 64 | 1005.5 |
| 20260505021559 | 11 | 272 | 4.8 | 8.0 | 0.00 | 0.00 | 0.00 | 65 | 1005.4 |
| 20260505021056 | 11 | 295 | 8.0 | 9.7 | 0.00 | 0.00 | 0.00 | 65 | 1005.6 |
| 20260505020556 | 11 | 297 | 4.8 | 4.8 | 0.00 | 0.00 | 0.00 | 67 | 1005.5 |
| 20260505020053 | 11 | 295 | 4.8 | 4.8 | 0.00 | 0.00 | 0.00 | 66 | 1005.3 |
| 20260505015550 | 11 | 321 | 3.2 | 3.2 | 0.00 | 0.00 | 0.00 | 64 | 1005.3 |
| 20260505015047 | 11 | 317 | 1.6 | 1.6 | 0.00 | 0.00 | 0.00 | 64 | 1005.1 |
| 20260505014544 | 12 | 263 | 3.2 | 4.8 | 0.00 | 0.00 | 0.00 | 64 | 1005.4 |
| 20260505014041 | 12 | 299 | 1.6 | 1.6 | 0.00 | 0.00 | 0.00 | 65 | 1005.0 |
| 20260505013537 | 12 | 349 | 3.2 | 11.3 | 0.00 | 0.00 | 0.00 | 63 | 1004.7 |
| 20260505013035 | 13 | 309 | 1.6 | 1.6 | 0.00 | 0.00 | 0.00 | 58 | 1004.7 |
| 20260505012533 | 13 | 321 | 1.6 | 4.8 | 0.00 | 0.00 | 0.00 | 57 | 1005.0 |
| 20260505012030 | 13 | 277 | 1.6 | 4.8 | 0.00 | 0.00 | 0.00 | 57 | 1004.9 |
| 20260505011525 | 13 | 242 | 4.8 | 4.8 | 0.00 | 0.00 | 0.00 | 57 | 1005.0 |
| 20260505011023 | 12 | 292 | 1.6 | 3.2 | 0.00 | 0.00 | 0.00 | 58 | 1004.9 |
| 20260505010518 | 12 | 299 | 1.6 | 3.2 | 0.00 | 0.00 | 0.00 | 60 | 1004.9 |
| 20260505010015 | 12 | 290 | 1.6 | 3.2 | 0.00 | 0.00 | 0.00 | 62 | 1004.8 |
| 20260505005512 | 12 | 294 | 3.2 | 8.0 | 0.00 | 0.00 | 0.00 | 61 | 1005.0 |
| 20260505005009 | 12 | 310 | 8.0 | 12.9 | 0.00 | 0.00 | 0.00 | 62 | 1004.7 |
| 20260505004506 | 12 | 334 | 16.1 | 17.7 | 0.00 | 0.00 | 0.00 | 63 | 1005.3 |
| 20260505004003 | 12 | 282 | 19.3 | 25.7 | 0.00 | 0.00 | 0.00 | 61 | 1004.9 |
| 20260505003500 | 13 | 313 | 20.9 | 24.1 | 0.00 | 0.00 | 0.00 | 57 | 1005.1 |
| 20260505002956 | 13 | 294 | 9.7 | 16.1 | 0.00 | 0.00 | 0.00 | 55 | 1005.0 |
| 20260505002452 | 13 | 346 | 17.7 | 27.4 | 0.00 | 0.00 | 0.00 | 53 | 1005.1 |
| 20260505001951 | 14 | 258 | 11.3 | 20.9 | 0.00 | 0.00 | 0.00 | 50 | 1004.9 |
| 20260505001448 | 15 | 326 | 19.3 | 25.7 | 0.00 | 0.00 | 0.00 | 46 | 1005.0 |
| 20260505000945 | 15 | 323 | 9.7 | 27.4 | 0.00 | 0.00 | 0.00 | 46 | 1004.9 |
| 20260505000443 | 15 | 326 | 16.1 | 17.7 | 0.00 | 0.00 | 0.00 | 46 | 1004.7 |
| 20260504235940 | 15 | 297 | 12.9 | 14.5 | 0.00 | 0.00 | 0.00 | 46 | 1004.8 |
| 20260504235437 | 15 | 325 | 20.9 | 25.7 | 0.00 | 0.00 | 0.00 | 44 | 1004.8 |
| 20260504234933 | 15 | 341 | 17.7 | 20.9 | 0.00 | 0.00 | 0.00 | 44 | 1004.6 |
| 20260504234431 | 15 | 326 | 14.5 | 24.1 | 0.00 | 0.00 | 0.00 | 43 | 1004.4 |
| 20260504233927 | 15 | 338 | 22.5 | 27.4 | 0.00 | 0.00 | 0.00 | 43 | 1004.2 |
| 20260504233423 | 16 | 300 | 11.3 | 17.7 | 0.00 | 0.00 | 0.00 | 41 | 1003.8 |
| 20260504232920 | 16 | 346 | 17.7 | 27.4 | 0.00 | 0.00 | 0.00 | 40 | 1003.8 |
| 20260504232417 | 16 | 323 | 20.9 | 25.7 | 0.00 | 0.00 | 0.00 | 40 | 1003.7 |
| 20260504231914 | 16 | 312 | 14.5 | 22.5 | 0.00 | 0.00 | 0.00 | 40 | 1003.4 |
| 20260504231410 | 16 | 291 | 16.1 | 22.5 | 0.00 | 0.00 | 0.00 | 40 | 1003.6 |
| 20260504230906 | 16 | 322 | 16.1 | 22.5 | 0.00 | 0.00 | 0.00 | 41 | 1003.3 |
| 20260504230404 | 16 | 276 | 20.9 | 35.4 | 0.00 | 0.00 | 0.00 | 40 | 1003.4 |
| 20260504225902 | 16 | 141 | 20.9 | 24.1 | 0.00 | 0.00 | 0.00 | 39 | 1003.3 |
| 20260504225359 | 16 | 311 | 20.9 | 29.0 | 0.00 | 0.00 | 0.00 | 38 | 1003.1 |
| 20260504224856 | 16 | 319 | 22.5 | 27.4 | 0.00 | 0.00 | 0.00 | 38 | 1003.0 |
| 20260504224352 | 16 | 300 | 16.1 | 27.4 | 0.00 | 0.00 | 0.00 | 37 | 1002.8 |
| 20260504223849 | 17 | 308 | 14.5 | 40.2 | 0.00 | 0.00 | 0.00 | 37 | 1003.1 |
| 20260504223345 | 16 | 3 | 12.9 | 27.4 | 0.00 | 0.00 | 0.00 | 37 | 1003.0 |
| 20260504222842 | 17 | 324 | 24.1 | 33.8 | 0.00 | 0.00 | 0.00 | 36 | 1002.9 |
| 20260504222338 | 18 | 335 | 20.9 | 40.2 | 0.00 | 0.00 | 0.00 | 34 | 1003.0 |
| 20260504221837 | 20 | 65 | 9.7 | 14.5 | 0.00 | 0.00 | 0.00 | 27 | 1002.7 |
| 20260504221333 | 20 | 351 | 9.7 | 14.5 | 0.00 | 0.00 | 0.00 | 28 | 1002.3 |
| 20260504220831 | 20 | 40 | 14.5 | 16.1 | 0.00 | 0.00 | 0.00 | 27 | 1002.3 |
| 20260504220327 | 20 | 3 | 12.9 | 16.1 | 0.00 | 0.00 | 0.00 | 28 | 1002.2 |
| 20260504215825 | 20 | 337 | 11.3 | 16.1 | 0.00 | 0.00 | 0.00 | 29 | 1002.4 |
| 20260504215321 | 20 | 310 | 11.3 | 14.5 | 0.00 | 0.00 | 0.00 | 29 | 1002.2 |
| 20260504214817 | 20 | 327 | 11.3 | 16.1 | 0.00 | 0.00 | 0.00 | 29 | 1002.6 |
| 20260504214314 | 20 | 322 | 12.9 | 20.9 | 0.00 | 0.00 | 0.00 | 29 | 1002.4 |
| 20260504213810 | 20 | 339 | 9.7 | 14.5 | 0.00 | 0.00 | 0.00 | 28 | 1002.4 |
| 20260504213306 | 19 | 336 | 8.0 | 12.9 | 0.00 | 0.00 | 0.00 | 29 | 1002.4 |
| 20260504212804 | 19 | 300 | 9.7 | 14.5 | 0.00 | 0.00 | 0.00 | 30 | 1002.7 |
| 20260504212300 | 19 | 259 | 8.0 | 16.1 | 0.00 | 0.00 | 0.00 | 31 | 1002.8 |
| 20260504211758 | 19 | 342 | 6.4 | 17.7 | 0.00 | 0.00 | 0.00 | 32 | 1002.8 |
| 20260504211254 | 18 | 129 | 8.0 | 24.1 | 0.00 | 0.00 | 0.00 | 32 | 1002.9 |
| 20260504210751 | 19 | 298 | 17.7 | 20.9 | 0.00 | 0.00 | 0.00 | 31 | 1002.9 |
| 20260504210248 | 19 | 339 | 11.3 | 16.1 | 0.00 | 0.00 | 0.00 | 31 | 1003.1 |
| 20260504205745 | 19 | 347 | 6.4 | 14.5 | 0.00 | 0.00 | 0.00 | 31 | 1003.0 |
| 20260504205243 | 18 | 325 | 8.0 | 16.1 | 0.00 | 0.00 | 0.00 | 32 | 1003.1 |
| 20260504204741 | 19 | 286 | 12.9 | 32.2 | 0.00 | 0.00 | 0.00 | 32 | 1003.4 |
| 20260504204239 | 18 | 312 | 12.9 | 35.4 | 0.00 | 0.00 | 0.00 | 34 | 1003.1 |
| 20260504203738 | 18 | 351 | 19.3 | 66.0 | 0.00 | 0.00 | 0.00 | 32 | 1003.3 |
| 20260504203235 | 18 | 310 | 25.7 | 29.0 | 0.00 | 0.00 | 0.00 | 31 | 1003.3 |
| 20260504202735 | 18 | 26 | 8.0 | 24.1 | 0.00 | 0.00 | 0.00 | 33 | 1003.5 |
| 20260504202233 | 18 | 337 | 14.5 | 35.4 | 0.00 | 0.00 | 0.00 | 32 | 1003.5 |
| 20260504201730 | 18 | 281 | 14.5 | 29.0 | 0.00 | 0.00 | 0.00 | 32 | 1003.4 |
| 20260504201227 | 18 | 267 | 22.5 | 27.4 | 0.00 | 0.00 | 0.00 | 32 | 1003.1 |
| 20260504200725 | 18 | 13 | 16.1 | 33.8 | 0.00 | 0.00 | 0.00 | 31 | 1003.0 |
| 20260504200220 | 18 | 335 | 14.5 | 20.9 | 0.00 | 0.00 | 0.00 | 32 | 1003.5 |
| 20260504195717 | 18 | 324 | 20.9 | 32.2 | 0.00 | 0.00 | 0.00 | 32 | 1003.4 |
| 20260504195213 | 18 | 315 | 20.9 | 29.0 | 0.00 | 0.00 | 0.00 | 31 | 1003.6 |
| 20260504194710 | 20 | 343 | 19.3 | 29.0 | 0.00 | 0.00 | 0.00 | 30 | 1003.6 |
| 20260504194206 | 20 | 341 | 20.9 | 29.0 | 0.00 | 0.00 | 0.00 | 29 | 1003.4 |
| 20260504193702 | 19 | 346 | 16.1 | 27.4 | 0.00 | 0.00 | 0.00 | 32 | 1003.5 |
| 20260504193200 | 18 | 4 | 12.9 | 35.4 | 0.00 | 0.00 | 0.00 | 33 | 1003.6 |
| 20260504192658 | 18 | 2 | 14.5 | 24.1 | 0.00 | 0.00 | 0.00 | 33 | 1003.5 |
| 20260504192156 | 18 | 337 | 20.9 | 25.7 | 0.00 | 0.00 | 0.00 | 32 | 1003.4 |
| 20260504191654 | 18 | 338 | 17.7 | 40.2 | 0.00 | 0.00 | 0.00 | 33 | 1003.4 |
| 20260504191150 | 20 | 329 | 27.4 | 35.4 | 0.00 | 0.00 | 0.00 | 32 | 1003.0 |
| 20260504190646 | 19 | 334 | 22.5 | 41.8 | 0.00 | 0.00 | 0.00 | 32 | 1003.0 |
| 20260504190143 | 20 | 292 | 20.9 | 29.0 | 0.00 | 0.00 | 0.00 | 30 | 1003.3 |
| 20260504185639 | 19 | 327 | 30.6 | 59.5 | 0.00 | 0.00 | 0.00 | 31 | 1003.4 |
| 20260504185136 | 18 | 303 | 35.4 | 66.0 | 0.00 | 0.00 | 0.00 | 32 | 1003.6 |
| 20260504184632 | 19 | 358 | 20.9 | 33.8 | 0.00 | 0.00 | 0.00 | 32 | 1003.1 |
| 20260504184127 | 18 | 337 | 22.5 | 43.5 | 0.00 | 0.00 | 0.00 | 32 | 1003.4 |
| 20260504183624 | 20 | 355 | 19.3 | 33.8 | 0.00 | 0.00 | 0.00 | 29 | 1003.4 |
| 20260504183122 | 20 | 7 | 11.3 | 32.2 | 0.00 | 0.00 | 0.00 | 29 | 1003.4 |
| 20260504182620 | 19 | 329 | 25.7 | 32.2 | 0.00 | 0.00 | 0.00 | 27 | 1003.6 |
| 20260504182117 | 21 | 4 | 14.5 | 22.5 | 0.00 | 0.00 | 0.00 | 25 | 1003.1 |
| 20260504181614 | 20 | 7 | 16.1 | 22.5 | 0.00 | 0.00 | 0.00 | 25 | 1002.8 |
| 20260504181111 | 20 | 26 | 16.1 | 24.1 | 0.00 | 0.00 | 0.00 | 28 | 1003.0 |
| 20260504180611 | 20 | 326 | 12.9 | 27.4 | 0.00 | 0.00 | 0.00 | 29 | 1003.3 |
| 20260504180109 | 21 | 12 | 19.3 | 27.4 | 0.00 | 0.00 | 0.00 | 27 | 1003.0 |
| 20260504175606 | 20 | 322 | 9.7 | 22.5 | 0.00 | 0.00 | 0.00 | 28 | 1002.9 |
| 20260504175103 | 21 | 1 | 16.1 | 32.2 | 0.00 | 0.00 | 0.00 | 24 | 1003.0 |
| 20260504174601 | 21 | 5 | 14.5 | 17.7 | 0.00 | 0.00 | 0.00 | 24 | 1003.1 |
| 20260504174057 | 21 | 330 | 8.0 | 12.9 | 0.00 | 0.00 | 0.00 | 26 | 1003.0 |
| 20260504173554 | 21 | 326 | 0.0 | 4.8 | 0.00 | 0.00 | 0.00 | 23 | 1003.1 |
| 20260504173052 | 20 | 248 | 11.3 | 16.1 | 0.00 | 0.00 | 0.00 | 25 | 1003.1 |
| 20260504172547 | 20 | 332 | 8.0 | 11.3 | 0.00 | 0.00 | 0.00 | 24 | 1003.0 |
| 20260504172044 | 21 | 256 | 9.7 | 16.1 | 0.00 | 0.00 | 0.00 | 23 | 1003.4 |
| 20260504171541 | 21 | 262 | 11.3 | 17.7 | 0.00 | 0.00 | 0.00 | 23 | 1003.5 |
| 20260504171038 | 21 | 193 | 17.7 | 20.9 | 0.00 | 0.00 | 0.00 | 23 | 1003.5 |
| 20260504170534 | 21 | 310 | 3.2 | 9.7 | 0.00 | 0.00 | 0.00 | 25 | 1003.7 |
| 20260504150912 | 17 | 205 | 17.7 | 25.7 | 0.00 | 0.00 | 0.00 | 28 | 1004.9 |
| 20260504150409 | 17 | 234 | 20.9 | 37.0 | 0.00 | 0.00 | 0.00 | 28 | 1005.0 |
| 20260504140835 | 13 | 339 | 3.2 | 12.9 | 0.00 | 0.00 | 0.00 | 32 | 1005.1 |
| 20260504140331 | 14 | 201 | 17.7 | 22.5 | 0.00 | 0.00 | 0.00 | 31 | 1005.1 |
| 20260504130800 | 11 | 162 | 20.9 | 29.0 | 0.00 | 0.00 | 0.00 | 36 | 1004.9 |
| 20260504130256 | 11 | 182 | 11.3 | 37.0 | 0.00 | 0.00 | 0.00 | 36 | 1004.8 |
| 20260504120220 | 11 | 149 | 14.5 | 24.1 | 0.00 | 0.00 | 0.00 | 37 | 1004.8 |
| 20260504110641 | 10 | 179 | 4.8 | 16.1 | 0.00 | 0.00 | 0.00 | 39 | 1005.3 |
| 20260504110137 | 10 | 191 | 12.9 | 27.4 | 0.00 | 0.00 | 0.00 | 38 | 1004.8 |